TimeAKST,TemperatureF,Dew PointF,Humidity,Sea Level PressureIn,VisibilityMPH,Wind Direction,Wind SpeedMPH,Gust SpeedMPH,PrecipitationIn,Events,Conditions,WindDirDegrees,DateUTC
12:16 AM,-7.6,-11.2,84,29.73,8.0,Calm,Calm,-,N/A,,Clear,0,2012-01-09 09:16:00
12:36 AM,-5.8,-9.4,84,29.75,7.0,Calm,Calm,-,N/A,,Clear,0,2012-01-09 09:36:00
12:56 AM,-9.4,-16.6,71,29.76,8.0,Calm,Calm,-,N/A,,Clear,0,2012-01-09 09:56:00
1:16 AM,-9.4,-13.0,84,29.77,8.0,Calm,Calm,-,N/A,,Clear,0,2012-01-09 10:16:00
1:36 AM,-11.2,-18.4,70,29.79,8.0,Calm,Calm,-,N/A,,Clear,0,2012-01-09 10:36:00
1:56 AM,-11.2,-14.8,84,29.81,8.0,ENE,3.5,-,N/A,,Clear,70,2012-01-09 10:56:00
2:16 AM,-11.2,-20.2,64,29.82,8.0,Calm,Calm,-,N/A,,Clear,0,2012-01-09 11:16:00
2:36 AM,-13.0,-13.0,100,29.83,8.0,Calm,Calm,-,N/A,,Clear,0,2012-01-09 11:36:00
2:56 AM,-14.8,-20.2,77,29.85,8.0,SSE,3.5,-,N/A,,Clear,160,2012-01-09 11:56:00
3:16 AM,-14.8,-14.8,100,29.87,8.0,Calm,Calm,-,N/A,,Clear,0,2012-01-09 12:16:00
3:36 AM,-9.4,-9.4,100,29.88,8.0,Calm,Calm,-,N/A,,Clear,0,2012-01-09 12:36:00
3:56 AM,-11.2,-18.4,70,29.90,8.0,Calm,Calm,-,N/A,,Clear,0,2012-01-09 12:56:00
4:16 AM,-11.2,-11.2,100,29.91,8.0,Calm,Calm,-,N/A,,Clear,0,2012-01-09 13:16:00
4:36 AM,-14.8,-20.2,77,29.92,8.0,Calm,Calm,-,N/A,,Clear,0,2012-01-09 13:36:00
4:56 AM,-14.8,-22.0,70,29.94,8.0,Calm,Calm,-,N/A,,Clear,0,2012-01-09 13:56:00
5:16 AM,-14.8,-18.4,84,29.94,7.0,Calm,Calm,-,N/A,,Clear,0,2012-01-09 14:16:00
5:36 AM,-14.8,-18.4,84,29.96,7.0,Calm,Calm,-,N/A,,Clear,0,2012-01-09 14:36:00
5:56 AM,-16.6,-20.2,84,29.97,8.0,ENE,3.5,-,N/A,,Clear,70,2012-01-09 14:56:00
6:16 AM,-16.6,-23.8,70,29.99,8.0,Calm,Calm,-,N/A,,Clear,0,2012-01-09 15:16:00
6:36 AM,-16.6,-20.2,84,30.00,8.0,ENE,3.5,-,N/A,,Clear,70,2012-01-09 15:36:00
7:16 AM,-18.4,-22.0,84,30.02,5.0,Calm,Calm,-,N/A,,Clear,0,2012-01-09 16:16:00
7:36 AM,-18.4,-18.4,100,30.02,7.0,Calm,Calm,-,N/A,,Clear,0,2012-01-09 16:36:00
7:56 AM,-18.4,-23.8,76,30.03,8.0,Calm,Calm,-,N/A,,Clear,0,2012-01-09 16:56:00
8:16 AM,-18.4,-25.6,70,30.04,5.0,ENE,3.5,-,N/A,,Clear,60,2012-01-09 17:16:00
8:36 AM,-18.4,-20.2,91,30.06,7.0,Calm,Calm,-,N/A,,Clear,0,2012-01-09 17:36:00
8:56 AM,-20.2,-27.4,69,30.07,7.0,Calm,Calm,-,N/A,,Clear,0,2012-01-09 17:56:00
9:16 AM,-18.4,-25.6,70,30.09,7.0,Calm,Calm,-,N/A,,Clear,0,2012-01-09 18:16:00
9:36 AM,-18.4,-20.2,91,30.11,7.0,ENE,3.5,-,N/A,,Clear,70,2012-01-09 18:36:00
9:56 AM,-16.6,-16.6,100,30.12,5.0,ENE,5.8,-,N/A,,Clear,70,2012-01-09 18:56:00
10:16 AM,-16.6,-20.2,84,30.13,5.0,ENE,4.6,-,N/A,,Clear,60,2012-01-09 19:16:00
10:36 AM,-18.4,-23.8,76,30.13,4.0,ENE,4.6,-,N/A,,Clear,70,2012-01-09 19:36:00
10:56 AM,-14.8,-20.2,77,30.14,5.0,East,6.9,-,N/A,,Clear,80,2012-01-09 19:56:00
11:16 AM,-14.8,-14.8,100,30.15,5.0,East,5.8,-,N/A,,Clear,80,2012-01-09 20:16:00
11:36 AM,-11.2,-18.4,70,30.16,5.0,ENE,6.9,-,N/A,,Clear,70,2012-01-09 20:36:00
11:56 AM,-9.4,-9.4,100,30.17,6.0,East,5.8,-,N/A,,Clear,80,2012-01-09 20:56:00
12:16 PM,-9.4,-16.6,71,30.17,5.0,ENE,5.8,-,N/A,,Clear,70,2012-01-09 21:16:00
12:36 PM,-9.4,-13.0,84,30.18,0.8,ENE,5.8,-,N/A,,Unknown,70,2012-01-09 21:36:00
12:56 PM,-9.4,-11.2,92,30.18,0.8,East,5.8,-,N/A,,Overcast,80,2012-01-09 21:56:00
1:16 PM,-7.6,-13.0,77,30.17,0.2,East,4.6,-,N/A,,Overcast,80,2012-01-09 22:16:00
1:36 PM,-7.6,-9.4,92,30.18,6.0,East,4.6,-,N/A,,Clear,80,2012-01-09 22:36:00
1:56 PM,-7.6,-11.2,84,30.19,6.0,ENE,3.5,-,N/A,,Scattered Clouds,70,2012-01-09 22:56:00
2:16 PM,-7.6,-7.6,100,30.19,6.0,ENE,4.6,-,N/A,,Overcast,60,2012-01-09 23:16:00
2:36 PM,-7.6,-9.4,92,30.18,6.0,ENE,4.6,-,N/A,,Overcast,70,2012-01-09 23:36:00
2:56 PM,-4.0,-4.0,100,30.17,6.0,ENE,4.6,-,N/A,,Overcast,60,2012-01-09 23:56:00
3:16 PM,-2.2,-9.4,71,30.16,6.0,East,4.6,-,N/A,,Overcast,80,2012-01-10 00:16:00
3:36 PM,-0.4,-0.4,100,30.16,6.0,East,6.9,-,N/A,,Overcast,100,2012-01-10 00:36:00
3:56 PM,-0.4,-5.8,78,30.16,6.0,East,4.6,-,N/A,,Overcast,80,2012-01-10 00:56:00
4:16 PM,1.4,-0.4,92,30.16,7.0,East,4.6,-,N/A,,Overcast,90,2012-01-10 01:16:00
4:36 PM,1.4,-2.2,85,30.16,7.0,Calm,Calm,-,N/A,,Overcast,0,2012-01-10 01:36:00
4:56 PM,1.4,-2.2,85,30.16,7.0,East,3.5,-,N/A,,Overcast,100,2012-01-10 01:56:00
5:16 PM,1.4,-0.4,92,30.14,8.0,East,3.5,-,N/A,,Overcast,90,2012-01-10 02:16:00
5:36 PM,1.4,-0.4,92,30.14,8.0,Calm,Calm,-,N/A,,Overcast,0,2012-01-10 02:36:00
5:56 PM,1.4,-0.4,92,30.14,8.0,Calm,Calm,-,N/A,,Overcast,0,2012-01-10 02:56:00
6:16 PM,3.2,3.2,100,30.14,8.0,Calm,Calm,-,N/A,,Overcast,0,2012-01-10 03:16:00
6:36 PM,3.2,1.4,92,30.14,8.0,East,4.6,-,N/A,,Overcast,80,2012-01-10 03:36:00
6:56 PM,6.8,3.2,85,30.12,7.0,NNE,3.5,-,N/A,,Overcast,30,2012-01-10 03:56:00
7:16 PM,8.6,6.8,92,30.11,7.0,NE,6.9,-,N/A,,Overcast,40,2012-01-10 04:16:00
7:36 PM,8.6,5.0,85,30.11,6.0,NE,9.2,-,N/A,,Overcast,50,2012-01-10 04:36:00
7:56 PM,6.8,3.2,85,30.10,7.0,ENE,8.1,-,N/A,,Overcast,60,2012-01-10 04:56:00
8:16 PM,6.8,5.0,92,30.09,10.0,NE,8.1,-,N/A,,Overcast,50,2012-01-10 05:16:00
8:36 PM,6.8,3.2,85,30.08,10.0,NE,5.8,-,N/A,,Overcast,50,2012-01-10 05:36:00
8:56 PM,6.8,5.0,92,30.07,10.0,NNE,6.9,-,N/A,,Overcast,30,2012-01-10 05:56:00
9:16 PM,6.8,3.2,85,30.06,10.0,NNE,6.9,-,N/A,,Overcast,30,2012-01-10 06:16:00
9:36 PM,6.8,3.2,85,30.04,10.0,NE,8.1,-,N/A,,Overcast,50,2012-01-10 06:36:00
9:56 PM,6.8,5.0,92,30.03,10.0,NE,5.8,-,N/A,,Overcast,50,2012-01-10 06:56:00
10:16 PM,8.6,5.0,85,30.03,10.0,ENE,6.9,-,N/A,,Overcast,60,2012-01-10 07:16:00
10:36 PM,8.6,3.2,79,30.02,10.0,NE,6.9,-,N/A,,Overcast,40,2012-01-10 07:36:00
10:56 PM,8.6,5.0,85,30.00,7.0,NNE,5.8,17.3,N/A,,Overcast,30,2012-01-10 07:56:00
11:16 PM,8.6,5.0,85,30.00,10.0,NE,8.1,-,N/A,,Overcast,50,2012-01-10 08:16:00
11:36 PM,8.6,5.0,85,29.99,10.0,NE,5.8,-,N/A,,Overcast,40,2012-01-10 08:36:00
11:56 PM,8.6,3.2,79,29.98,10.0,NNE,8.1,-,N/A,,Scattered Clouds,30,2012-01-10 08:56:00